RH
11 13 15 20 25 18 17 24 19 19 20 24 31 33 34 32 33 43 43 45 45 46 46 45 43 39 36 35 32 30 28 26 23 19 12 8 7 6 6 6 6 7 9 11 12 10 8 6 6
12 15 20 24 24 21 25 26 27 24 25 27 31 29 30 34 37 39 41 43 43 44 45 42 40 37 34 32 30 27 24 22 17 11 8 7 7 6 6 6 6 6 7 9 9 8 6 6 6
17 22 26 29 27 27 27 30 27 26 27 29 32 31 33 40 41 39 40 41 44 44 43 41 38 35 29 25 22 22 21 17 13 9 8 7 7 7 7 7 7 7 7 7 7 6 6 6 6
25 32 32 30 28 27 21 24 22 21 25 28 32 33 38 40 38 38 41 43 42 44 43 40 33 28 24 22 22 22 16 12 10 9 9 8 8 8 10 8 8 8 7 8 7 6 6 6 6
25 26 24 20 18 17 18 18 16 17 20 25 29 32 36 37 37 40 42 42 43 44 42 34 29 27 25 25 24 22 14 13 12 11 12 10 9 9 11 9 9 9 9 10 10 10 10 8 6
19 16 16 15 13 13 12 12 14 16 18 22 27 31 37 35 37 40 40 40 40 37 35 34 32 26 28 27 25 21 15 15 14 14 14 12 11 10 11 11 12 14 11 12 12 10 8 7 6
15 15 10 10 10 10 13 13 14 15 19 21 26 31 37 37 38 39 39 39 40 40 42 42 32 29 27 19 18 19 19 18 18 18 16 15 14 12 12 12 12 12 11 11 13 10 7 6 6
13 11 10 11 11 11 13 12 14 15 19 21 24 30 36 41 42 43 42 40 41 43 42 39 34 33 32 24 22 21 20 19 19 20 19 18 18 16 15 14 14 12 11 11 12 9 8 7 7
11 11 11 12 12 14 12 12 15 15 18 22 26 30 37 44 46 45 45 41 43 44 42 37 36 34 31 30 25 23 24 25 25 26 25 24 27 25 24 21 17 15 13 12 11 10 8 8 8
10 10 11 12 11 12 12 12 13 16 21 23 27 31 38 45 43 44 46 47 49 45 42 40 38 33 31 30 33 36 37 37 36 35 34 32 30 31 29 28 23 21 19 17 15 12 10 10 13
10 10 10 12 12 12 12 14 15 17 22 23 26 32 36 40 43 47 51 49 48 46 45 44 41 33 33 34 36 37 37 38 40 37 37 40 38 40 37 34 31 29 24 27 23 22 20 19 14
11 12 12 13 14 14 15 15 19 18 20 21 23 26 31 35 41 45 48 51 52 51 47 46 42 40 40 42 40 43 45 47 51 53 48 48 48 45 41 37 35 31 28 26 24 22 21 18 19
12 13 13 15 15 16 17 17 20 20 21 22 24 27 33 38 43 48 53 56 55 50 49 49 49 48 44 45 46 51 56 56 55 57 54 51 50 45 41 38 35 30 28 27 26 24 23 20 21
14 13 14 16 17 18 20 22 23 24 26 28 29 35 39 43 48 53 56 57 54 54 53 56 56 52 50 53 56 60 59 60 57 59 57 51 47 44 41 37 32 28 29 30 28 26 25 22 21
13 15 16 18 19 21 21 26 26 25 25 26 28 32 36 40 45 49 52 51 52 55 58 61 57 52 54 63 66 67 65 63 64 64 60 53 46 43 37 31 27 28 29 27 27 27 26 23 22
15 17 20 21 21 21 19 29 22 18 18 20 22 25 30 35 43 47 50 51 54 56 59 57 61 62 68 71 71 69 70 71 69 65 59 50 37 33 32 27 28 32 32 32 31 28 28 28 29
18 20 20 21 19 16 15 22 21 22 21 23 25 28 31 37 43 48 52 55 58 58 59 67 72 73 73 72 72 74 73 68 59 54 51 44 40 35 26 24 25 28 30 31 30 29 28 27 27
20 19 19 18 19 16 22 29 28 28 25 27 30 34 38 41 50 54 58 62 63 66 75 80 81 82 76 76 78 77 66 60 57 56 51 40 36 27 24 24 24 25 30 32 31 30 28 28 26
18 18 17 18 21 18 26 34 33 30 30 34 38 44 52 59 63 67 68 70 72 81 87 87 85 83 83 84 74 65 64 62 58 54 43 37 27 25 24 23 25 26 28 29 29 30 30 29 27
20 21 22 19 20 18 28 33 40 37 38 43 47 51 60 69 76 76 75 79 86 91 92 88 88 88 78 70 65 63 62 62 60 44 35 28 28 29 28 27 26 29 29 30 31 29 27 25 25
22 22 21 21 18 29 27 47 45 46 49 57 66 65 64 71 77 78 81 85 93 91 90 89 82 71 66 65 63 64 66 52 42 34 32 32 33 28 28 28 32 36 38 38 39 40 39 37 35
18 22 19 18 22 32 29 45 52 50 56 71 75 79 76 75 78 82 84 87 89 87 86 73 65 64 63 63 66 60 44 35 31 32 32 35 33 32 34 35 36 36 42 48 47 45 46 48 50
17 16 23 21 29 33 46 48 56 57 63 65 68 72 77 81 82 84 87 90 84 73 64 62 58 62 63 53 42 31 29 30 30 31 34 36 39 40 37 39 43 50 54 53 55 56 56 55 60
23 21 24 26 37 52 55 48 73 62 56 52 52 56 63 65 66 68 71 68 62 60 56 54 52 45 36 30 27 26 28 28 31 32 34 36 39 42 46 50 53 54 59 63 62 63 63 65 64
29 31 35 47 57 58 48 66 82 63 52 49 49 50 55 56 56 57 56 54 52 50 45 38 30 27 28 26 24 22 21 22 23 26 29 33 36 42 48 56 63 71 72 73 73 73 78 81 79
37 40 49 55 48 65 59 94 90 69 48 43 43 47 48 48 48 48 48 47 43 37 28 25 24 22 22 22 20 20 19 19 22 25 26 27 35 46 55 61 63 67 79 92 92 90 91 94 89
41 56 69 83 64 69 76 98 94 70 46 39 42 43 43 44 43 43 40 37 31 29 26 21 19 20 19 17 17 21 23 25 26 30 38 46 54 59 69 75 78 78 79 75 93 96 96 97 95
50 62 87 79 91 92 94 95 88 74 50 40 42 43 43 41 40 37 35 30 29 27 24 21 20 21 21 23 25 30 34 38 47 58 73 87 95 97 97 97 94 93 96 97 97 97 97 97 96
55 73 81 91 97 97 95 98 84 70 57 42 42 43 41 39 36 35 34 30 26 23 23 26 24 28 30 29 38 43 47 57 71 93 97 97 97 96 96 92 91 89 88 90 93 97 97 97 96
63 78 87 95 97 90 91 96 74 55 44 40 41 38 35 33 35 36 32 28 22 27 30 25 24 26 29 39 44 49 60 79 93 97 96 96 92 83 71 64 65 68 70 72 73 84 88 96 97